SCP
-0 0 0 0 -0 0 -0 -0 0 0 -0 -0 -0 0 0 0 0 0 0 -0 -0 0 0 -0 -0 -0 -0 -0 -0 -0 0 0 0 0 0 0 0 0 0 0 0 0 0 0 0 0 0 0 0
0 0 0 0 0 -0 -0 0 -0 -0 -0 -0 -0 0 -0 0 0 0 0 -0 0 0 0 0 0 -0 -0 0 -0 0 0 0 0 0 0 0 0 0 0 0 0 0 0 0 0 0 0 0 0
0 0 0 0 0 0 0 -0 -0 -0 -0 0 -0 -0 0 0 0 0 0 0 0 0 0 0 0 -0 -0 0 0 0 0 0 0 0 0 0 0 0 0 0 0 0 0 0 0 0 0 0 0
0 0 0 0 -0 -0 -0 -0 -0 -0 0 0 0 0 0 0 0 0 0 0 0 0 0 0 0 0 0 0 0 0 0 0 0 0 0 0 0 0 0 0 0 0 0 0 0 0 0 0 0
0 0 0 0 -0 -0 -0 -0 0 0 0 0 0 0 0 0 0 0 0 0 0 0 0 0 0 0 0 0 0 0 0 0 0 0 0 0 0 0 0 0 0 0 0 0 0 0 0 0 0
0 0 0 0 -0 -0 -0 -0 0 0 0 0 0 0 0 0 0 0 0 0 0 0 0 0 0 0 0 0 0 0 0 0 0 0 0 0 0 0 0 0 0 0 0 0 0 0 0 0 0
0 0 0 0 -0 -0 0 0 0 0 0 0 0 0 0 0 0 0 0 0 0 0 0 0 0 0 0 0 0 0 0 0 0 0 0 0 0 0 0 0 0 0 0 0 0 0 0 0 0
0 0 0 0 0 0 0 0 0 0 0 0 0 0 0 0 0 0 0 0 0 0 0 0 0 0 0 0 0 0 0 0 0 0 0 0 0 0 0 0 0 0 0 0 0 0 0 0 0
0 0 0 0 0 0 0 0 0 0 0 0 0 0 0 0 0 0 0 0 0 0 0 0 0 0 0 0 0 0 0 0 0 0 0 0 0 0 0 0 0 0 0 0 0 0 0 0 0
0 0 0 0 0 0 0 0 0 0 0 0 0 0 0 0 0 0 0 0 0 0 0 0 0 0 0 0 0 0 0 0 0 0 0 0 0 0 0 0 0 0 0 0 0 0 0 0 0
0 0 0 0 0 0 0 0 0 0 0 0 0 0 0 0 0 0 0 0 0 0 0 0 0 0 0 0 0 0 0 0 0 0 0 0 0 0 0 0 0 0 0 0 0 0 0 0 0
0 0 0 -0 -0 0 0 0 0 0 0 0 0 0 0 0 0 0 0 0 0 0 0 0 0 0 0 0 0 0 0 0 0 0 0 0 0 0 0 0 0 0 0 0 0 0 0 0 0
-0 -0 -0 -0 -0 0 0 0 0 0 0 0 0 0 0 0 0 0 0 0 0 0 0 0 0 0 0 0 0 0 0 0 0 0 0 0 0 0 0 0 0 0 0 0 0 0 0 0 0
-0 -0 -0 0 0 0 0 0 0 0 0 0 0 0 0 0 0 0 0 0 0 0 0 0 0 0 0 0 0 0 0 0 0 0 0 0 0 0 0 0 0 0 0 0 0 0 0 0 0
-0 -0 0 0 0 0 0 0 0 0 0 0 0 0 0 0 0 0 0 0 0 0 0 0 0 0 0 0 0 0 0 0 0 0 0 0 0 0 0 0 0 0 0 0 0 0 0 0 0
0 0 0 0 0 0 0 0 0 0 -0 -0 0 0 0 0 0 0 0 0 0 0 0 0 0 0 0 0 0 0 0 0 0 0 0 0 0 0 0 0 0 0 0 0 0 0 0 0 0
0 0 0 0 0 0 0 0 0 0 0 0 0 0 0 0 0 0 0 0 0 0 0 0 0 0 0 0 0 0 0 0 0 0 0 0 0 0 0 0 0 0 0 0 0 0 0 0 0
0 0 0 0 0 0 -0 -0 0 0 0 0 0 0 0 0 0 0 0 0 0 0 0 0 0 0 0 0 0 0 0 0 0 0 0 0 0 0 0 0 0 0 0 0 0 0 0 0 0
0 0 0 0 0 0 0 0 0 0 0 0 0 0 0 0 0 0 0 0 0 0 0 0 0 0 0 0 0 0 0 0 0 0 0 0 0 0 0 0 0 0 0 0 0 0 0 0 0
0 0 0 0 0 0 0 -0 0 0 0 0 0 0 0 0 0 0 0 0 0 0 0 0 0 0 0 0 0 0 0 0 0 0 0 0 0 0 0 0 0 0 0 0 0 0 0 0 0
0 0 0 0 0 0 0 0 0 0 0 0 0 0 0 0 0 0 0 0 0 0 0 0 0 0 0 0 0 0 0 0 0 0 0 0 0 0 0 0 0 0 0 0 0 0 0 0 0
0 0 0 0 0 0 0 0 0 0 0 0 0 0 0 0 0 0 0 0 0 0 0 0 0 0 0 0 0 0 0 0 0 0 0 0 0 0 0 0 0 0 0 0 0 0 0 0 0
0 0 0 0 0 0 0 0 0 0 0 0 0 0 0 0 0 0 0 0 0 0 0 0 0 0 0 0 0 0 0 0 0 0 0 0 0 0 0 0 0 0 0 0 0 0 0 0 0
0 0 0 0 0 0 0 0 0 0 0 0 0 0 0 0 0 0 0 0 0 0 0 0 0 0 0 0 0 0 0 0 0 0 0 0 0 0 0 0 0 0 0 0 0 0 0 0 0
0 -0 -0 0 0 0 0 0 0 0 0 0 0 0 0 0 0 0 0 0 0 0 0 0 0 0 0 0 0 0 0 0 0 0 0 0 0 0 0 0 0 0 0 0 0 0 0 0 0
0 0 0 0 0 0 0 0 0 0 0 0 0 0 0 0 0 0 0 0 0 0 0 0 0 0 0 0 0 0 0 0 0 0 0 0 0 0 0 0 0 0 0 0 0 0 0 0 0
0 0 0 0 0 0 0 0 0 0 0 0 0 0 0 0 0 0 0 0 0 0 0 0 0 0 0 0 0 0 0 0 0 0 0 0 0 0 0 0 0 0 0 0 0 0 0 0 0
0 0 0 0 0 0 0 0 0 0 0 0 0 0 0 0 0 0 0 0 0 0 0 0 0 0 0 0 0 0 0 0 0 0 0 0 0 0 0 0 0 0 0 0 0 0 0 0 0
0 0 0 0 0 0 0 0 0 0 0 0 0 0 0 0 0 0 0 0 0 0 0 0 0 0 0 0 0 0 0 0 0 0 0 0 0 0 0 0 0 0 0 0 0 0 0 0 0
0 0 0 0 0 0 0 0 0 0 0 0 0 0 0 0 0 0 0 0 0 0 0 0 0 0 0 0 0 0 0 0 0 0 0 0 0 0 0 0 0 0 0 0 0 0 0 0 0
Wind_Speed_500mb
3 4 7 4 7 4 11 10 4 8 7 12 19 14 22 20 9 6 7 19 11 23 24 27 27 22 22 19 17 16 8 7 14 20 20 21 22 19 17 23 21 20 21 23 22 23 23 22 23
1 2 6 3 5 14 11 6 15 16 17 12 12 9 18 9 17 7 10 17 18 12 15 21 19 18 16 10 9 14 7 11 14 15 17 17 19 19 21 21 22 21 21 22 22 22 21 23 24
5 6 4 5 3 12 12 12 14 15 8 5 8 16 8 8 14 8 12 15 15 12 12 14 14 12 13 15 14 10 8 8 10 13 16 20 22 23 23 25 23 25 26 25 25 24 23 23 24
5 7 10 9 24 13 10 10 8 9 10 10 16 16 11 20 6 14 15 17 13 17 14 17 12 13 14 13 15 16 15 15 16 17 21 26 29 29 29 30 30 30 30 30 29 28 29 29 30
9 7 8 16 22 12 14 8 3 8 10 15 5 12 10 13 13 16 17 15 11 15 15 15 17 19 18 19 20 19 18 19 20 22 24 27 31 35 36 33 32 31 31 32 34 34 34 34 35
7 2 12 15 17 11 12 9 6 16 11 9 15 15 7 9 11 13 12 11 12 16 17 15 16 18 20 22 23 23 24 23 23 24 25 28 30 31 31 32 32 33 33 33 34 35 37 37 38
10 6 9 17 17 11 4 5 9 12 7 13 5 8 9 3 7 6 6 12 16 14 16 20 24 26 29 32 30 29 29 27 26 27 28 28 28 29 30 31 33 34 34 35 36 37 38 38 37
10 8 8 4 9 6 3 4 4 6 8 6 4 6 10 9 3 4 7 9 11 17 21 25 31 34 38 39 30 31 29 28 27 28 29 29 30 30 31 32 33 35 36 37 37 37 37 38 39
10 7 8 7 8 8 1 7 5 9 15 13 7 10 15 14 4 5 11 16 20 25 27 28 28 29 28 30 29 28 28 30 30 31 31 33 35 36 37 38 39 41 42 42 43 44 45 45 45
11 7 7 3 3 4 6 5 6 8 13 13 14 12 12 13 12 15 17 17 16 18 18 21 25 31 34 33 32 30 30 31 32 33 34 35 38 39 41 43 43 44 45 46 47 48 49 50 51
9 7 12 4 2 1 6 6 2 14 6 5 10 14 14 13 14 15 12 17 15 16 20 25 30 33 33 32 29 28 26 27 30 33 35 37 40 41 42 44 45 47 49 49 51 52 52 52 52
14 9 3 4 6 4 4 5 6 2 7 14 16 17 16 13 12 10 11 14 17 19 22 27 28 29 28 28 28 27 26 26 28 31 35 38 39 40 40 41 43 44 47 48 50 53 55 56 57
20 10 11 11 16 13 7 4 5 9 16 17 17 17 12 11 11 11 13 14 17 19 21 22 23 24 24 24 23 22 23 25 28 31 33 34 36 39 41 42 43 45 49 50 53 55 58 61 62
10 20 11 10 9 6 8 8 5 17 18 16 17 11 12 13 16 17 14 14 16 16 17 19 21 22 21 21 21 22 23 24 26 29 33 36 38 42 45 47 49 50 51 53 55 57 61 64 65
14 10 5 9 9 3 4 12 14 8 22 18 19 24 23 21 18 16 12 10 13 16 17 17 16 16 18 19 21 23 25 27 29 32 36 41 45 48 50 52 54 57 60 63 63 63 63 63 61
3 3 5 7 12 2 4 12 11 9 30 34 29 28 24 22 18 14 11 11 13 14 14 15 16 17 18 20 22 25 28 31 36 41 46 51 55 58 61 63 64 67 68 66 64 62 62 62 59
10 2 6 5 4 8 7 20 12 10 27 35 34 30 22 19 18 16 15 14 14 15 16 16 16 17 19 21 24 27 32 38 42 47 51 55 59 62 66 67 67 70 69 68 66 64 58 57 59
1 1 6 11 7 7 20 43 29 22 29 35 32 31 25 21 21 23 22 19 19 18 17 18 21 24 27 30 33 36 40 45 49 53 56 60 66 71 75 75 75 75 73 66 62 60 58 56 53
3 3 10 6 9 16 19 35 36 33 32 32 34 34 32 26 27 26 24 24 23 21 21 22 25 29 33 38 44 50 56 58 59 61 63 66 69 72 74 74 73 71 69 66 61 59 57 53 49
1 7 10 17 2 13 21 51 40 25 29 39 35 35 31 27 30 33 32 29 27 24 25 27 30 33 39 45 50 54 59 61 62 63 66 70 74 75 73 71 70 65 61 58 53 50 50 47 41
5 6 8 13 24 2 24 19 3 6 9 13 24 29 32 35 37 37 35 32 30 29 30 30 33 37 42 48 54 57 59 58 58 66 72 75 78 78 74 71 67 63 58 50 51 47 46 53 47
5 3 11 15 15 9 16 11 9 4 9 18 27 33 39 43 40 38 38 39 36 34 32 34 36 40 46 52 56 59 61 57 62 67 69 77 76 74 70 66 62 59 53 50 46 43 45 45 52
5 8 6 4 3 8 10 5 9 4 4 4 21 37 41 41 40 44 43 42 39 36 36 37 38 44 49 54 58 62 64 63 64 61 63 61 55 57 57 56 55 53 52 51 52 52 50 48 50
10 5 2 3 2 2 3 9 15 5 2 6 8 15 33 38 42 43 43 44 40 39 38 40 44 49 54 59 62 66 69 69 65 61 59 54 53 50 47 46 47 48 48 50 53 54 53 52 51
6 7 6 6 3 5 6 9 23 12 16 15 14 15 17 29 35 38 42 42 39 37 40 46 52 56 59 63 67 70 72 71 66 62 56 59 56 53 51 51 50 50 52 54 53 53 54 53 54
8 4 3 10 9 17 7 13 8 6 6 12 17 21 20 21 30 38 40 37 36 39 44 49 53 56 60 65 70 72 73 65 58 55 57 57 57 56 57 57 55 57 55 54 53 54 56 54 57
2 2 3 3 4 5 6 13 26 6 14 15 19 14 16 15 25 35 34 35 37 40 42 46 51 56 62 68 70 70 66 63 56 56 55 56 58 60 61 61 62 61 60 58 56 56 58 57 59
3 7 1 1 10 16 8 11 15 7 8 3 9 12 9 21 29 34 32 32 33 34 39 43 51 59 65 66 66 64 60 55 53 54 56 58 59 62 62 64 64 64 63 61 60 61 59 59 61
4 3 3 1 2 7 14 11 12 12 8 4 8 4 17 24 36 26 24 25 29 32 38 47 55 62 66 68 68 63 56 57 56 56 58 58 60 62 64 65 66 66 65 63 63 64 65 62 61
3 4 7 5 7 7 6 23 4 1 1 8 16 20 26 42 23 15 17 20 26 36 45 53 59 65 65 63 62 60 61 59 58 60 61 60 63 65 65 66 67 69 67 63 65 66 67 66 65
Wind_Direction_500mb
337 348 111 102 183 151 114 91 71 104 110 60 66 55 84 47 22 43 337 349 32 69 62 56 54 51 65 78 68 48 103 58 344 335 326 326 324 334 339 342 345 346 341 338 333 328 326 325 324
81 75 85 94 180 156 103 77 82 62 98 89 71 58 40 71 34 42 28 22 89 80 61 61 55 56 59 48 23 29 35 341 348 332 318 324 327 329 328 334 334 331 330 328 325 324 324 322 321
104 95 69 61 75 101 114 74 88 90 50 103 106 62 48 357 22 28 35 85 76 42 67 46 37 52 51 45 46 44 25 349 342 341 329 326 327 323 325 323 324 321 319 316 312 311 310 311 311
130 52 60 79 100 68 80 86 68 135 99 62 108 84 90 34 45 47 84 76 79 73 71 56 30 28 23 12 352 347 357 347 344 333 324 323 320 318 315 314 317 316 315 313 309 306 306 307 307
88 76 87 94 86 98 73 62 77 148 98 59 176 113 93 34 58 80 77 71 73 53 35 27 5 11 4 358 345 341 337 331 323 317 316 316 316 313 313 314 314 313 310 307 306 307 305 305 304
71 72 125 114 108 103 75 31 115 89 94 91 92 108 105 66 93 66 58 46 16 9 10 359 356 355 345 343 331 334 328 327 325 319 319 318 317 315 313 314 312 310 308 305 303 301 300 300 299
89 60 86 116 122 122 48 348 66 78 104 55 106 113 127 133 80 64 15 7 352 349 347 350 343 340 337 324 325 325 321 319 318 316 316 313 311 308 309 309 310 309 307 305 304 303 302 299 298
87 85 111 67 149 112 19 120 102 62 81 85 80 126 148 175 184 312 317 311 313 333 336 336 329 323 324 325 325 324 322 319 315 310 307 305 303 301 300 299 298 299 300 301 300 298 295 294 293
78 87 119 135 168 138 134 170 73 76 102 73 83 118 147 181 216 268 280 293 298 308 315 314 319 328 331 328 329 325 320 316 315 314 313 312 311 310 309 307 305 303 301 300 300 300 299 297 294
50 98 137 175 171 143 80 128 120 173 129 95 106 140 167 197 215 242 254 273 287 292 301 308 315 319 322 325 325 320 320 318 318 319 319 318 317 315 313 311 309 306 303 302 301 300 299 299 298
39 105 145 126 280 217 93 77 50 159 127 141 176 171 191 200 217 237 257 278 289 299 309 316 319 321 324 327 332 331 326 320 317 317 317 318 318 316 315 313 311 308 305 304 303 302 301 299 299
100 71 103 53 2 95 125 116 106 167 175 174 170 194 194 202 214 241 270 285 305 310 315 317 319 323 329 333 335 336 336 333 328 324 323 323 323 323 322 321 319 315 311 308 305 303 300 299 297
80 109 66 55 80 74 137 162 222 199 181 182 187 190 184 199 221 242 262 282 300 309 316 323 331 333 337 342 343 343 341 339 339 337 336 334 333 331 330 327 323 318 314 310 307 305 302 299 297
108 113 113 67 79 66 165 189 210 202 182 181 192 181 193 208 227 244 258 282 302 314 320 329 333 337 345 349 352 354 354 353 348 342 339 338 335 332 329 326 323 319 315 313 310 307 304 301 299
125 103 134 51 357 47 289 233 230 141 183 183 197 214 215 220 230 238 254 282 299 311 319 319 322 337 345 349 350 350 348 344 339 334 331 330 328 327 325 322 318 315 313 311 309 305 302 299 296
130 173 207 74 10 57 313 283 167 201 181 200 204 211 210 220 227 238 255 277 293 304 311 324 333 338 338 339 339 338 336 334 332 330 330 329 328 327 326 324 322 319 317 314 311 308 304 301 298
38 22 345 271 104 305 232 275 186 201 202 216 216 214 207 219 229 245 261 273 283 294 301 306 309 310 316 320 324 327 327 327 326 326 324 324 323 324 324 323 320 318 316 313 312 309 308 306 301
57 253 254 272 24 304 266 263 260 229 220 230 223 219 213 214 229 248 257 268 280 285 289 297 305 312 316 319 321 320 322 325 326 324 323 325 325 325 325 324 322 321 319 316 313 310 308 305 304
49 304 292 297 29 320 287 286 281 259 233 229 224 220 220 218 236 246 255 264 268 274 282 291 301 308 312 315 321 324 328 329 327 325 324 323 322 322 321 318 316 314 312 311 311 311 311 309 308
276 307 325 295 43 325 307 292 293 269 243 234 225 224 224 220 235 244 252 259 264 270 280 291 299 308 316 323 325 325 322 318 317 317 319 322 323 323 322 320 317 315 312 310 308 309 308 305 307
35 342 341 290 318 144 313 282 297 69 228 226 229 229 227 226 232 241 252 259 263 269 277 288 300 309 316 322 324 322 321 320 321 322 323 323 323 321 319 317 313 311 309 306 307 306 306 304 305
314 61 303 299 334 316 359 294 304 346 279 229 229 228 229 230 237 243 251 257 258 265 277 288 301 312 318 321 322 325 325 321 321 321 321 321 319 317 315 313 310 307 304 302 301 301 299 299 298
328 316 304 338 325 316 15 282 277 333 21 8 236 233 232 232 234 244 249 251 257 267 276 285 299 308 314 318 323 323 323 322 321 318 317 316 315 314 313 313 310 306 303 300 300 301 300 297 294
308 261 151 141 208 283 320 345 284 280 233 266 259 248 236 230 238 244 249 253 261 269 279 291 301 307 313 318 322 324 323 322 319 317 315 314 312 311 309 307 305 303 301 300 299 299 297 294 290
317 300 331 342 352 317 163 272 258 243 232 247 285 293 277 237 240 247 252 258 265 273 284 295 302 309 315 319 322 322 322 320 318 317 315 314 312 310 307 306 306 303 300 299 297 294 292 290 289
12 356 66 306 303 305 145 230 249 199 245 269 272 280 285 249 246 253 257 262 268 276 287 296 304 309 315 320 320 320 320 319 316 313 311 309 307 306 305 304 302 300 298 297 296 293 289 287 286
74 67 38 116 87 285 234 273 278 275 279 250 263 277 293 283 270 268 270 271 277 287 297 303 308 315 319 320 321 321 319 317 314 312 309 307 305 303 302 301 300 298 297 297 297 294 291 288 285
326 111 14 91 313 305 228 283 252 294 271 232 249 259 308 307 301 280 272 274 286 296 301 310 315 319 321 322 322 320 319 317 315 313 311 308 306 305 303 301 299 297 296 296 296 294 293 292 287
148 195 71 299 228 265 301 273 202 226 203 199 275 248 311 319 308 281 270 285 299 305 312 316 321 323 324 324 323 323 322 320 317 315 313 310 308 307 305 302 300 298 296 296 295 294 293 292 289
294 260 205 211 207 235 274 273 90 325 340 251 255 304 316 315 310 293 290 302 314 319 322 325 327 326 326 327 327 325 323 321 319 317 315 313 309 309 308 306 298 298 292 294 295 295 295 291 289
Wind_Speed_850mb
3 4 7 4 7 4 11 10 4 8 7 12 19 14 22 20 9 6 7 19 11 23 24 27 27 22 22 19 17 16 8 7 14 20 20 21 22 19 17 23 21 20 21 23 22 23 23 22 23
1 2 6 3 5 14 11 6 15 16 17 12 12 9 18 9 17 7 10 17 18 12 15 21 19 18 16 10 9 14 7 11 14 15 17 17 19 19 21 21 22 21 21 22 22 22 21 23 24
5 6 4 5 3 12 12 12 14 15 8 5 8 16 8 8 14 8 12 15 15 12 12 14 14 12 13 15 14 10 8 8 10 13 16 20 22 23 23 25 23 25 26 25 25 24 23 23 24
5 7 10 9 24 13 10 10 8 9 10 10 16 16 11 20 6 14 15 17 13 17 14 17 12 13 14 13 15 16 15 15 16 17 21 26 29 29 29 30 30 30 30 30 29 28 29 29 30
9 7 8 16 22 12 14 8 3 8 10 15 5 12 10 13 13 16 17 15 11 15 15 15 17 19 18 19 20 19 18 19 20 22 24 27 31 35 36 33 32 31 31 32 34 34 34 34 35
7 2 12 15 17 11 12 9 6 16 11 9 15 15 7 9 11 13 12 11 12 16 17 15 16 18 20 22 23 23 24 23 23 24 25 28 30 31 31 32 32 33 33 33 34 35 37 37 38
10 6 9 17 17 11 4 5 9 12 7 13 5 8 9 3 7 6 6 12 16 14 16 20 24 26 29 32 30 29 29 27 26 27 28 28 28 29 30 31 33 34 34 35 36 37 38 38 37
10 8 8 4 9 6 3 4 4 6 8 6 4 6 10 9 3 4 7 9 11 17 21 25 31 34 38 39 30 31 29 28 27 28 29 29 30 30 31 32 33 35 36 37 37 37 37 38 39
10 7 8 7 8 8 1 7 5 9 15 13 7 10 15 14 4 5 11 16 20 25 27 28 28 29 28 30 29 28 28 30 30 31 31 33 35 36 37 38 39 41 42 42 43 44 45 45 45
11 7 7 3 3 4 6 5 6 8 13 13 14 12 12 13 12 15 17 17 16 18 18 21 25 31 34 33 32 30 30 31 32 33 34 35 38 39 41 43 43 44 45 46 47 48 49 50 51
9 7 12 4 2 1 6 6 2 14 6 5 10 14 14 13 14 15 12 17 15 16 20 25 30 33 33 32 29 28 26 27 30 33 35 37 40 41 42 44 45 47 49 49 51 52 52 52 52
14 9 3 4 6 4 4 5 6 2 7 14 16 17 16 13 12 10 11 14 17 19 22 27 28 29 28 28 28 27 26 26 28 31 35 38 39 40 40 41 43 44 47 48 50 53 55 56 57
20 10 11 11 16 13 7 4 5 9 16 17 17 17 12 11 11 11 13 14 17 19 21 22 23 24 24 24 23 22 23 25 28 31 33 34 36 39 41 42 43 45 49 50 53 55 58 61 62
10 20 11 10 9 6 8 8 5 17 18 16 17 11 12 13 16 17 14 14 16 16 17 19 21 22 21 21 21 22 23 24 26 29 33 36 38 42 45 47 49 50 51 53 55 57 61 64 65
14 10 5 9 9 3 4 12 14 8 22 18 19 24 23 21 18 16 12 10 13 16 17 17 16 16 18 19 21 23 25 27 29 32 36 41 45 48 50 52 54 57 60 63 63 63 63 63 61
3 3 5 7 12 2 4 12 11 9 30 34 29 28 24 22 18 14 11 11 13 14 14 15 16 17 18 20 22 25 28 31 36 41 46 51 55 58 61 63 64 67 68 66 64 62 62 62 59
10 2 6 5 4 8 7 20 12 10 27 35 34 30 22 19 18 16 15 14 14 15 16 16 16 17 19 21 24 27 32 38 42 47 51 55 59 62 66 67 67 70 69 68 66 64 58 57 59
1 1 6 11 7 7 20 43 29 22 29 35 32 31 25 21 21 23 22 19 19 18 17 18 21 24 27 30 33 36 40 45 49 53 56 60 66 71 75 75 75 75 73 66 62 60 58 56 53
3 3 10 6 9 16 19 35 36 33 32 32 34 34 32 26 27 26 24 24 23 21 21 22 25 29 33 38 44 50 56 58 59 61 63 66 69 72 74 74 73 71 69 66 61 59 57 53 49
1 7 10 17 2 13 21 51 40 25 29 39 35 35 31 27 30 33 32 29 27 24 25 27 30 33 39 45 50 54 59 61 62 63 66 70 74 75 73 71 70 65 61 58 53 50 50 47 41
5 6 8 13 24 2 24 19 3 6 9 13 24 29 32 35 37 37 35 32 30 29 30 30 33 37 42 48 54 57 59 58 58 66 72 75 78 78 74 71 67 63 58 50 51 47 46 53 47
5 3 11 15 15 9 16 11 9 4 9 18 27 33 39 43 40 38 38 39 36 34 32 34 36 40 46 52 56 59 61 57 62 67 69 77 76 74 70 66 62 59 53 50 46 43 45 45 52
5 8 6 4 3 8 10 5 9 4 4 4 21 37 41 41 40 44 43 42 39 36 36 37 38 44 49 54 58 62 64 63 64 61 63 61 55 57 57 56 55 53 52 51 52 52 50 48 50
10 5 2 3 2 2 3 9 15 5 2 6 8 15 33 38 42 43 43 44 40 39 38 40 44 49 54 59 62 66 69 69 65 61 59 54 53 50 47 46 47 48 48 50 53 54 53 52 51
6 7 6 6 3 5 6 9 23 12 16 15 14 15 17 29 35 38 42 42 39 37 40 46 52 56 59 63 67 70 72 71 66 62 56 59 56 53 51 51 50 50 52 54 53 53 54 53 54
8 4 3 10 9 17 7 13 8 6 6 12 17 21 20 21 30 38 40 37 36 39 44 49 53 56 60 65 70 72 73 65 58 55 57 57 57 56 57 57 55 57 55 54 53 54 56 54 57
2 2 3 3 4 5 6 13 26 6 14 15 19 14 16 15 25 35 34 35 37 40 42 46 51 56 62 68 70 70 66 63 56 56 55 56 58 60 61 61 62 61 60 58 56 56 58 57 59
3 7 1 1 10 16 8 11 15 7 8 3 9 12 9 21 29 34 32 32 33 34 39 43 51 59 65 66 66 64 60 55 53 54 56 58 59 62 62 64 64 64 63 61 60 61 59 59 61
4 3 3 1 2 7 14 11 12 12 8 4 8 4 17 24 36 26 24 25 29 32 38 47 55 62 66 68 68 63 56 57 56 56 58 58 60 62 64 65 66 66 65 63 63 64 65 62 61
3 4 7 5 7 7 6 23 4 1 1 8 16 20 26 42 23 15 17 20 26 36 45 53 59 65 65 63 62 60 61 59 58 60 61 60 63 65 65 66 67 69 67 63 65 66 67 66 65
Wind_Direction_850mb
337 348 111 102 183 151 114 91 71 104 110 60 66 55 84 47 22 43 337 349 32 69 62 56 54 51 65 78 68 48 103 58 344 335 326 326 324 334 339 342 345 346 341 338 333 328 326 325 324
81 75 85 94 180 156 103 77 82 62 98 89 71 58 40 71 34 42 28 22 89 80 61 61 55 56 59 48 23 29 35 341 348 332 318 324 327 329 328 334 334 331 330 328 325 324 324 322 321
104 95 69 61 75 101 114 74 88 90 50 103 106 62 48 357 22 28 35 85 76 42 67 46 37 52 51 45 46 44 25 349 342 341 329 326 327 323 325 323 324 321 319 316 312 311 310 311 311
130 52 60 79 100 68 80 86 68 135 99 62 108 84 90 34 45 47 84 76 79 73 71 56 30 28 23 12 352 347 357 347 344 333 324 323 320 318 315 314 317 316 315 313 309 306 306 307 307
88 76 87 94 86 98 73 62 77 148 98 59 176 113 93 34 58 80 77 71 73 53 35 27 5 11 4 358 345 341 337 331 323 317 316 316 316 313 313 314 314 313 310 307 306 307 305 305 304
71 72 125 114 108 103 75 31 115 89 94 91 92 108 105 66 93 66 58 46 16 9 10 359 356 355 345 343 331 334 328 327 325 319 319 318 317 315 313 314 312 310 308 305 303 301 300 300 299
89 60 86 116 122 122 48 348 66 78 104 55 106 113 127 133 80 64 15 7 352 349 347 350 343 340 337 324 325 325 321 319 318 316 316 313 311 308 309 309 310 309 307 305 304 303 302 299 298
87 85 111 67 149 112 19 120 102 62 81 85 80 126 148 175 184 312 317 311 313 333 336 336 329 323 324 325 325 324 322 319 315 310 307 305 303 301 300 299 298 299 300 301 300 298 295 294 293
78 87 119 135 168 138 134 170 73 76 102 73 83 118 147 181 216 268 280 293 298 308 315 314 319 328 331 328 329 325 320 316 315 314 313 312 311 310 309 307 305 303 301 300 300 300 299 297 294
50 98 137 175 171 143 80 128 120 173 129 95 106 140 167 197 215 242 254 273 287 292 301 308 315 319 322 325 325 320 320 318 318 319 319 318 317 315 313 311 309 306 303 302 301 300 299 299 298
39 105 145 126 280 217 93 77 50 159 127 141 176 171 191 200 217 237 257 278 289 299 309 316 319 321 324 327 332 331 326 320 317 317 317 318 318 316 315 313 311 308 305 304 303 302 301 299 299
100 71 103 53 2 95 125 116 106 167 175 174 170 194 194 202 214 241 270 285 305 310 315 317 319 323 329 333 335 336 336 333 328 324 323 323 323 323 322 321 319 315 311 308 305 303 300 299 297
80 109 66 55 80 74 137 162 222 199 181 182 187 190 184 199 221 242 262 282 300 309 316 323 331 333 337 342 343 343 341 339 339 337 336 334 333 331 330 327 323 318 314 310 307 305 302 299 297
108 113 113 67 79 66 165 189 210 202 182 181 192 181 193 208 227 244 258 282 302 314 320 329 333 337 345 349 352 354 354 353 348 342 339 338 335 332 329 326 323 319 315 313 310 307 304 301 299
125 103 134 51 357 47 289 233 230 141 183 183 197 214 215 220 230 238 254 282 299 311 319 319 322 337 345 349 350 350 348 344 339 334 331 330 328 327 325 322 318 315 313 311 309 305 302 299 296
130 173 207 74 10 57 313 283 167 201 181 200 204 211 210 220 227 238 255 277 293 304 311 324 333 338 338 339 339 338 336 334 332 330 330 329 328 327 326 324 322 319 317 314 311 308 304 301 298
38 22 345 271 104 305 232 275 186 201 202 216 216 214 207 219 229 245 261 273 283 294 301 306 309 310 316 320 324 327 327 327 326 326 324 324 323 324 324 323 320 318 316 313 312 309 308 306 301
57 253 254 272 24 304 266 263 260 229 220 230 223 219 213 214 229 248 257 268 280 285 289 297 305 312 316 319 321 320 322 325 326 324 323 325 325 325 325 324 322 321 319 316 313 310 308 305 304
49 304 292 297 29 320 287 286 281 259 233 229 224 220 220 218 236 246 255 264 268 274 282 291 301 308 312 315 321 324 328 329 327 325 324 323 322 322 321 318 316 314 312 311 311 311 311 309 308
276 307 325 295 43 325 307 292 293 269 243 234 225 224 224 220 235 244 252 259 264 270 280 291 299 308 316 323 325 325 322 318 317 317 319 322 323 323 322 320 317 315 312 310 308 309 308 305 307
35 342 341 290 318 144 313 282 297 69 228 226 229 229 227 226 232 241 252 259 263 269 277 288 300 309 316 322 324 322 321 320 321 322 323 323 323 321 319 317 313 311 309 306 307 306 306 304 305
314 61 303 299 334 316 359 294 304 346 279 229 229 228 229 230 237 243 251 257 258 265 277 288 301 312 318 321 322 325 325 321 321 321 321 321 319 317 315 313 310 307 304 302 301 301 299 299 298
328 316 304 338 325 316 15 282 277 333 21 8 236 233 232 232 234 244 249 251 257 267 276 285 299 308 314 318 323 323 323 322 321 318 317 316 315 314 313 313 310 306 303 300 300 301 300 297 294
308 261 151 141 208 283 320 345 284 280 233 266 259 248 236 230 238 244 249 253 261 269 279 291 301 307 313 318 322 324 323 322 319 317 315 314 312 311 309 307 305 303 301 300 299 299 297 294 290
317 300 331 342 352 317 163 272 258 243 232 247 285 293 277 237 240 247 252 258 265 273 284 295 302 309 315 319 322 322 322 320 318 317 315 314 312 310 307 306 306 303 300 299 297 294 292 290 289
12 356 66 306 303 305 145 230 249 199 245 269 272 280 285 249 246 253 257 262 268 276 287 296 304 309 315 320 320 320 320 319 316 313 311 309 307 306 305 304 302 300 298 297 296 293 289 287 286
74 67 38 116 87 285 234 273 278 275 279 250 263 277 293 283 270 268 270 271 277 287 297 303 308 315 319 320 321 321 319 317 314 312 309 307 305 303 302 301 300 298 297 297 297 294 291 288 285
326 111 14 91 313 305 228 283 252 294 271 232 249 259 308 307 301 280 272 274 286 296 301 310 315 319 321 322 322 320 319 317 315 313 311 308 306 305 303 301 299 297 296 296 296 294 293 292 287
148 195 71 299 228 265 301 273 202 226 203 199 275 248 311 319 308 281 270 285 299 305 312 316 321 323 324 324 323 323 322 320 317 315 313 310 308 307 305 302 300 298 296 296 295 294 293 292 289
294 260 205 211 207 235 274 273 90 325 340 251 255 304 316 315 310 293 290 302 314 319 322 325 327 326 326 327 327 325 323 321 319 317 315 313 309 309 308 306 298 298 292 294 295 295 295 291 289